Hourly Data Report for February 20, 2021

TORONTO CITY
ONTARIO
Current Station Operator: ECCC - MSC

43°40'00.000" N
79°24'00.000" W
112.50 m
6158355
71508
XTO

Download Data

Hourly Data (February 2021)
Hourly Data Report for February 20, 2021
TIME
LST
Temp Definition
°C
Dew Point Definition
°C
Rel Hum Definition
%
Precip. Amount Definition
mm

Wind Dir Definition
10's deg

Wind Spd Definition
km/h
Visibility Definition
km
Stn Press Definition
kPa
Hmdx Definition


Wind Chill Definition


Weather Definition


00:00 -3.7 -8.1 72 0.0       100.67     LegendNANA
01:00 -4.0 -7.2 78 0.0       100.67     LegendNANA
02:00 -4.2 -7.5 78 0.0       100.68     LegendNANA
03:00 -4.4 -8.3 74 0.0       100.66     LegendNANA
04:00 -4.5 -8.4 75 0.0       100.68     LegendNANA
05:00 -4.6 -7.6 79 0.0       100.68     LegendNANA
06:00 -4.8 -7.5 81 0.0       100.67     LegendNANA
07:00 -4.8 -7.9 79 0.0       100.69     LegendNANA
08:00 -4.6 -8.2 76 0.0       100.75     LegendNANA
09:00 -4.5 -9.8 66 0.0       100.81     LegendNANA
10:00 -3.3 -9.1 65 0.0       100.81     LegendNANA
11:00 -2.2 -9.1 59 0.0       100.86     LegendNANA
12:00 -1.9 -10.4 52 0.0       100.90     LegendNANA
13:00 -2.4 -8.0 65 0.0       100.88     LegendNANA
14:00 -2.3 -8.2 64 0.0       100.88     LegendNANA
15:00 -1.8 -8.6 59 0.0       100.90     LegendNANA
16:00 -2.7 -7.5 70 0.0       101.00     LegendNANA
17:00 -2.5 -8.4 64 0.0       101.04     LegendNANA
18:00 -3.0 -9.2 62 0.0       101.13     LegendNANA
19:00 -3.5 -10.1 60 0.0       101.24     LegendNANA
20:00 -4.2 -10.1 63 0.0       101.31     LegendNANA
21:00 -4.9 -10.1 67 0.0       101.38     LegendNANA
22:00 -5.7 -10.7 68 0.0       101.44     LegendNANA
23:00 -5.7 -11.1 65 0.0       101.51     LegendNANA

Notes on Data Quality.

Legend

  • E = Estimated
  • M = Missing
  • NA = Not Available*
  • [empty] = Indicates an unobserved value
Date modified: